| time (UTC) | temp F | wind direction | speed MPH | gust MPH | rain 1hr in | rain 24hr in | rain mn in | humidity % | barometer mb |
| 20260507171533 | 58 | 1 | 0.0 | 1.0 | 0.00 | 0.27 | 0.15 | 66 | 1013.7 |
| 20260507170049 | 60 | 11 | 0.0 | 0.0 | 0.00 | 0.27 | 0.15 | 64 | 1013.8 |
| 20260507164558 | 62 | 14 | 0.0 | 1.0 | 0.00 | 0.40 | 0.15 | 58 | 1013.8 |
| 20260507163012 | 63 | 330 | 0.0 | 0.0 | 0.00 | 0.40 | 0.15 | 59 | 1013.8 |
| 20260507161512 | 63 | 28 | 0.0 | 0.0 | 0.00 | 0.40 | 0.15 | 58 | 1013.8 |
| 20260507160030 | 63 | 90 | 0.0 | 1.0 | 0.00 | 0.40 | 0.15 | 55 | 1013.9 |
| 20260507154544 | 63 | 98 | 0.0 | 3.0 | 0.00 | 0.46 | 0.15 | 54 | 1014.0 |
| 20260507153006 | 63 | 350 | 0.0 | 3.0 | 0.00 | 0.46 | 0.15 | 53 | 1013.9 |
| 20260507151517 | 63 | 1 | 0.0 | 4.0 | 0.00 | 0.46 | 0.15 | 52 | 1014.0 |
| 20260507150031 | 63 | 84 | 0.0 | 7.0 | 0.00 | 0.46 | 0.15 | 53 | 1014.1 |
| 20260507144549 | 63 | 65 | 0.0 | 6.0 | 0.00 | 0.50 | 0.15 | 57 | 1014.1 |
| 20260507143054 | 62 | 66 | 0.0 | 1.0 | 0.00 | 0.50 | 0.15 | 56 | 1014.3 |
| 20260507141506 | 63 | 340 | 0.0 | 3.0 | 0.00 | 0.50 | 0.15 | 51 | 1014.4 |
| 20260507140022 | 63 | 4 | 0.0 | 5.0 | 0.00 | 0.50 | 0.15 | 49 | 1014.6 |
| 20260507134534 | 63 | 80 | 1.0 | 6.0 | 0.00 | 0.50 | 0.15 | 55 | 1014.5 |
| 20260507133050 | 63 | 255 | 0.0 | 7.0 | 0.00 | 0.50 | 0.15 | 64 | 1014.7 |
| 20260507131621 | 62 | 99 | 1.0 | 5.0 | 0.00 | 0.50 | 0.15 | 57 | 1014.8 |
| 20260507130016 | 62 | 94 | 0.0 | 3.0 | 0.00 | 0.50 | 0.15 | 62 | 1014.8 |
| 20260507124526 | 61 | 84 | 2.0 | 7.0 | 0.00 | 0.56 | 0.15 | 63 | 1014.8 |
| 20260507123053 | 60 | 218 | 0.0 | 4.0 | 0.00 | 0.56 | 0.15 | 64 | 1014.9 |
| 20260507121551 | 62 | 236 | 0.0 | 1.0 | 0.00 | 0.56 | 0.15 | 66 | 1015.0 |
| 20260507120001 | 61 | 13 | 1.0 | 6.0 | 0.00 | 0.67 | 0.15 | 63 | 1014.9 |
| 20260507114517 | 59 | 118 | 0.0 | 4.0 | 0.00 | 0.67 | 0.15 | 64 | 1014.9 |
| 20260507113047 | 59 | 24 | 0.0 | 6.0 | 0.00 | 0.67 | 0.15 | 64 | 1015.0 |
| 20260507111610 | 60 | 214 | 0.0 | 5.0 | 0.00 | 0.67 | 0.15 | 67 | 1015.0 |
| 20260507110138 | 59 | 94 | 0.0 | 4.0 | 0.00 | 0.67 | 0.15 | 70 | 1015.0 |
| 20260507104602 | 58 | 217 | 0.0 | 4.0 | 0.00 | 0.80 | 0.15 | 66 | 1015.2 |
| 20260507103033 | 60 | 86 | 0.0 | 1.0 | 0.00 | 0.80 | 0.15 | 68 | 1015.1 |
| 20260507101550 | 57 | 190 | 0.0 | 0.0 | 0.00 | 0.80 | 0.15 | 76 | 1015.2 |
| 20260507100059 | 55 | 90 | 0.0 | 1.0 | 0.00 | 0.80 | 0.15 | 78 | 1015.3 |
| 20260507094506 | 55 | 82 | 0.0 | 0.0 | 0.00 | 1.44 | 0.15 | 82 | 1015.3 |
| 20260507093034 | 55 | 30 | 0.0 | 0.0 | 0.00 | 1.44 | 0.15 | 80 | 1015.3 |
| 20260507091532 | 57 | 1 | 0.0 | 3.0 | 0.00 | 1.44 | 0.15 | 78 | 1015.2 |
| 20260507090048 | 58 | 325 | 0.0 | 0.0 | 0.00 | 1.44 | 0.15 | 77 | 1015.1 |
| 20260507084559 | 55 | 88 | 0.0 | 0.0 | 0.00 | 1.61 | 0.15 | 81 | 1015.2 |
| 20260507083033 | 53 | 88 | 0.0 | 0.0 | 0.00 | 1.61 | 0.15 | 88 | 1015.2 |
| 20260507081548 | 53 | 134 | 0.0 | 1.0 | 0.00 | 1.61 | 0.15 | 86 | 1015.1 |
| 20260507080136 | 54 | 16 | 0.0 | 3.0 | 0.00 | 1.61 | 0.15 | 86 | 1014.9 |
| 20260507074524 | 53 | 39 | 0.0 | 0.0 | 0.00 | 1.62 | 0.15 | 86 | 1014.9 |
| 20260507073029 | 54 | 124 | 0.0 | 0.0 | 0.00 | 1.62 | 0.15 | 86 | 1014.9 |
| 20260507071602 | 54 | 124 | 0.0 | 1.0 | 0.00 | 1.62 | 0.15 | 86 | 1014.8 |
| 20260507070008 | 54 | 248 | 0.0 | 1.0 | 0.00 | 1.62 | 0.15 | 91 | 1014.8 |
| 20260507064518 | 52 | 248 | 0.0 | 1.0 | 0.00 | 1.62 | 0.15 | 93 | 1014.7 |
| 20260507063035 | 51 | 248 | 0.0 | 0.0 | 0.00 | 1.62 | 0.15 | 94 | 1014.7 |
| 20260507061546 | 50 | 248 | 0.0 | 0.0 | 0.00 | 1.62 | 0.15 | 94 | 1014.6 |
| 20260507060100 | 50 | 248 | 0.0 | 0.0 | 0.00 | 1.62 | 0.15 | 94 | 1014.5 |
| 20260507054508 | 50 | 248 | 0.0 | 0.0 | 0.00 | 1.62 | 0.15 | 94 | 1014.4 |
| 20260507053030 | 49 | 248 | 0.0 | 1.0 | 0.00 | 1.62 | 0.15 | 94 | 1014.4 |
| 20260507051546 | 49 | 248 | 0.0 | 0.0 | 0.00 | 1.62 | 0.15 | 94 | 1014.2 |
| 20260507050055 | 49 | 248 | 0.0 | 0.0 | 0.00 | 1.62 | 0.15 | 94 | 1014.1 |
| 20260507044522 | 49 | 248 | 0.0 | 0.0 | 0.00 | 1.62 | 0.15 | 94 | 1014.0 |
| 20260507043040 | 49 | 248 | 0.0 | 0.0 | 0.00 | 1.62 | 0.15 | 94 | 1013.9 |
| 20260507041559 | 49 | 248 | 0.0 | 0.0 | 0.00 | 1.62 | 0.15 | 94 | 1013.9 |
| 20260507040004 | 49 | 248 | 0.0 | 0.0 | 0.00 | 1.62 | 0.15 | 94 | 1013.9 |
| 20260507034518 | 49 | 248 | 0.0 | 0.0 | 0.00 | 1.62 | 0.15 | 94 | 1013.8 |
| 20260507033034 | 49 | 248 | 0.0 | 0.0 | 0.00 | 1.62 | 0.15 | 94 | 1013.7 |
| 20260507031632 | 49 | 248 | 0.0 | 0.0 | 0.00 | 1.62 | 0.15 | 94 | 1013.6 |
| 20260507030005 | 49 | 248 | 0.0 | 0.0 | 0.02 | 1.62 | 0.15 | 94 | 1013.5 |
| 20260507024520 | 49 | 248 | 0.0 | 0.0 | 0.02 | 1.62 | 0.15 | 94 | 1013.5 |
| 20260507023053 | 49 | 248 | 0.0 | 0.0 | 0.03 | 1.62 | 0.15 | 94 | 1013.5 |
| 20260507021518 | 49 | 248 | 0.0 | 0.0 | 0.06 | 1.62 | 0.15 | 94 | 1013.4 |
| 20260507020035 | 48 | 248 | 0.0 | 0.0 | 0.04 | 1.61 | 0.13 | 94 | 1013.3 |
| 20260507014609 | 48 | 248 | 0.0 | 0.0 | 0.03 | 1.60 | 0.13 | 94 | 1013.3 |
| 20260507013032 | 48 | 248 | 0.0 | 0.0 | 0.02 | 1.59 | 0.12 | 94 | 1013.2 |
| 20260507011532 | 48 | 248 | 0.0 | 0.0 | 0.02 | 1.57 | 0.09 | 94 | 1013.2 |
| 20260507010031 | 49 | 248 | 0.0 | 0.0 | 0.02 | 1.57 | 0.09 | 94 | 1013.2 |
| 20260507004543 | 49 | 248 | 0.0 | 0.0 | 0.02 | 1.57 | 0.09 | 94 | 1013.1 |
| 20260507003100 | 49 | 248 | 0.0 | 0.0 | 0.03 | 1.57 | 0.09 | 94 | 1013.1 |
| 20260507001507 | 49 | 248 | 0.0 | 0.0 | 0.04 | 1.55 | 0.08 | 94 | 1013.0 |
| 20260507000039 | 49 | 248 | 0.0 | 0.0 | 0.05 | 1.54 | 0.07 | 94 | 1012.9 |
| 20260506234549 | 49 | 248 | 0.0 | 0.0 | 0.06 | 1.54 | 0.07 | 94 | 1012.9 |
| 20260506233003 | 48 | 248 | 0.0 | 0.0 | 0.06 | 1.54 | 0.06 | 93 | 1013.0 |
| 20260506231519 | 49 | 248 | 0.0 | 0.0 | 0.04 | 1.51 | 0.04 | 93 | 1012.9 |
| 20260506230028 | 48 | 248 | 0.0 | 0.0 | 0.02 | 1.50 | 0.02 | 93 | 1012.9 |
| 20260506224553 | 48 | 248 | 0.0 | 0.0 | 0.02 | 1.48 | 0.01 | 93 | 1012.8 |
| 20260506223011 | 49 | 248 | 0.0 | 0.0 | 0.02 | 1.48 | 0.01 | 93 | 1012.7 |
| 20260506221523 | 49 | 248 | 0.0 | 0.0 | 0.01 | 1.47 | 0.00 | 93 | 1012.6 |
| 20260506220108 | 49 | 248 | 0.0 | 0.0 | 0.01 | 1.47 | 0.00 | 93 | 1012.5 |
| 20260506214511 | 48 | 248 | 0.0 | 0.0 | 0.00 | 1.46 | 1.46 | 93 | 1012.4 |
| 20260506213023 | 48 | 248 | 0.0 | 0.0 | 0.00 | 1.46 | 1.46 | 93 | 1012.4 |
| 20260506211548 | 48 | 248 | 0.0 | 0.0 | 0.00 | 1.46 | 1.46 | 93 | 1012.4 |
| 20260506210005 | 48 | 248 | 0.0 | 0.0 | 0.01 | 1.46 | 1.46 | 93 | 1012.3 |
| 20260506204528 | 48 | 248 | 0.0 | 0.0 | 0.02 | 1.46 | 1.46 | 93 | 1012.3 |
| 20260506203121 | 48 | 248 | 0.0 | 0.0 | 0.02 | 1.46 | 1.46 | 93 | 1012.1 |
| 20260506201600 | 48 | 248 | 0.0 | 0.0 | 0.03 | 1.46 | 1.46 | 93 | 1012.1 |
| 20260506200012 | 48 | 248 | 0.0 | 0.0 | 0.04 | 1.46 | 1.46 | 93 | 1012.0 |
| 20260506194526 | 48 | 248 | 0.0 | 0.0 | 0.05 | 1.45 | 1.45 | 92 | 1011.8 |
| 20260506193036 | 48 | 248 | 0.0 | 0.0 | 0.05 | 1.44 | 1.44 | 93 | 1011.7 |
| 20260506191559 | 48 | 248 | 0.0 | 0.0 | 0.04 | 1.43 | 1.43 | 93 | 1011.5 |
| 20260506190025 | 49 | 248 | 0.0 | 0.0 | 0.03 | 1.42 | 1.42 | 92 | 1011.5 |
| 20260506184541 | 49 | 248 | 0.0 | 0.0 | 0.02 | 1.40 | 1.40 | 92 | 1011.3 |
| 20260506183049 | 49 | 248 | 0.0 | 1.0 | 0.02 | 1.39 | 1.39 | 92 | 1011.2 |
| 20260506181502 | 49 | 248 | 0.0 | 1.0 | 0.02 | 1.39 | 1.39 | 92 | 1011.0 |
| 20260506180025 | 49 | 248 | 0.0 | 2.0 | 0.03 | 1.39 | 1.39 | 92 | 1010.9 |
| 20260506174604 | 49 | 240 | 0.0 | 0.0 | 0.06 | 1.38 | 1.38 | 92 | 1010.8 |
| 20260506173100 | 49 | 241 | 0.0 | 0.0 | 0.09 | 1.38 | 1.38 | 92 | 1010.6 |